Home > Weather > Kreuzlingen > Past weeks

Flag for Switzerland Past Weather in Kreuzlingen, Thurgau, Switzerland — Yesterday and Last 2 Weeks

Now
57 °F

Light rain. Overcast.


Feels Like: 55 °F
Forecast: 51 / 67 °F
Wind: 9 mph from Southwest

Location: Friedrichshafen Airport

Current Time: May 30, 2016 at 3:15:19 AM

Latest Report: May 30, 2016 at 2:50 AM


Visibility: N/A

Pressure: 29.74 "Hg

Humidity: 94%

Dew Point: 55 °F

Location of KreuzlingenLocation

Past Weather in Kreuzlingen — Graph

°F

Kreuzlingen Temperature Yesterday

Maximum temperature yesterday: 68 °F (at 10:50 AM)
Minimum temperature yesterday: 57 °F (at 3:20 PM)
Average temperature yesterday: 61 °F

High & Low Weather Summary for the Past Weeks

 TemperatureHumidityPressure
High81 °F (May 22, 2:20 PM)100% (May 15, 3:50 AM)30.18 "Hg (May 15, 3:50 AM)
Low37 °F (May 16, 6:20 AM)32% (May 22, 5:20 PM)29.68 "Hg (May 29, 1:50 PM)
Average56 °F77%29.98 "Hg
* Reported May 15 1:20 AM — May 30 1:50 AM, Kreuzlingen, Weather by CustomWeather, © 2016

Note: Actual official high and low records may vary slightly from our data, if they occured in-between our weather recording intervals... More about our weather records

Advertising

Kreuzlingen Weather History for the Previous 24 Hours

Scroll right to see more
 ConditionsComfort  
Time TempWeatherWind HumidityBarometerVisibility
1:50 AM
Mon, May 30
57 °FLight rain. Mostly cloudy.9 mph94%29.74 "HgN/A
1:20 AM57 °FLight rain. Mostly cloudy.2 mph94%29.74 "Hg5 mi
12:50 AM57 °FLight rain. Mostly cloudy.7 mph94%29.74 "HgN/A
12:20 AM57 °FLight rain. Mostly cloudy.8 mph94%29.74 "HgN/A
11:50 PM
Sun, May 29
57 °FLight rain. Mostly cloudy.7 mph94%29.77 "HgN/A
11:20 PM57 °FLight rain. Overcast.8 mph94%29.77 "HgN/A
10:50 PM57 °FSprinkles. Overcast.7 mph94%29.77 "HgN/A
9:50 PM57 °FLight rain. More clouds than sun.8 mph94%29.74 "HgN/A
8:50 PM59 °FLight rain. Mostly cloudy.12 mph88%29.74 "HgN/A
8:20 PM59 °FSprinkles. Cloudy.7 mph94%29.74 "HgN/A
7:50 PM59 °FSprinkles. Mostly cloudy.7 mph94%29.71 "HgN/A
7:20 PM61 °FPartly sunny.8 mph88%29.71 "HgN/A
6:50 PM61 °FMore clouds than sun.10 mph94%29.68 "HgN/A
6:20 PM61 °FDrizzle. More clouds than sun.9 mph88%29.71 "HgN/A
5:50 PM61 °FMostly cloudy.7 mph88%29.71 "HgN/A
5:20 PM61 °FCloudy.6 mph88%29.71 "HgN/A
4:50 PM59 °FCloudy.5 mph94%29.71 "HgN/A
4:20 PM57 °FLight rain. Mostly cloudy.5 mph100%29.71 "HgN/A
3:50 PM57 °FLight rain. Low clouds.7 mph100%29.71 "HgN/A
3:20 PM57 °FRain. Mostly cloudy.14 mph94%29.68 "Hg6 mi
2:50 PM61 °FOvercast.10 mph83%29.68 "HgN/A
2:20 PM63 °FOvercast.8 mph77%29.68 "HgN/A
1:50 PM64 °FLight rain. Broken clouds.5 mph83%29.68 "HgN/A
1:20 PM66 °FLight rain. Cloudy.3 mph73%29.71 "HgN/A
12:50 PM66 °FLight rain. Overcast.2 mph78%29.71 "HgN/A
12:20 PM66 °FLight rain. Overcast.3 mph73%29.71 "HgN/A
11:50 AM68 °FSunny.1 mph73%29.71 "Hg10 mi
11:20 AM68 °FSunny.No wind73%29.71 "Hg10 mi
10:50 AM68 °FSunny.1 mph78%29.71 "Hg10 mi
10:20 AM64 °FBroken clouds.3 mph83%29.74 "HgN/A
9:50 AM64 °FBroken clouds.2 mph88%29.74 "HgN/A
9:20 AM63 °FOvercast.No wind94%29.74 "HgN/A
8:50 AM63 °FLight rain. More clouds than sun.2 mph88%29.74 "HgN/A
8:20 AM61 °FMostly cloudy.2 mph94%29.77 "HgN/A
7:50 AM61 °FSunny.1 mph94%29.77 "Hg10 mi
7:20 AM63 °FSunny.2 mph88%29.77 "Hg10 mi
6:50 AM59 °FPartly sunny.2 mph94%29.77 "HgN/A
6:20 AM59 °FPassing clouds.2 mph94%29.77 "HgN/A
5:50 AM59 °FPassing clouds.1 mph94%29.74 "HgN/A
5:20 AM61 °FPartly cloudy.6 mph94%29.77 "HgN/A
4:50 AM61 °FClear.2 mph94%29.77 "Hg10 mi
4:20 AM63 °FMostly cloudy.3 mph88%29.77 "HgN/A
3:50 AM63 °FPartly cloudy.6 mph88%29.80 "HgN/A
3:20 AM61 °FPassing clouds.5 mph94%29.77 "HgN/A
Weather by CustomWeather, © 2016

See weather overviewHow to use our weather pages